Location: LDNL
(36.4545°S, 141.6685°E)
Time: 10:40:37
(UTC+10:00)

Explorer 7 - Pass Details

Date: 17 August 2022
Orbit: 482 x 668 km, 50.3° (Epoch: 26 September)

Event Time Altitude Azimuth Distance (km) Brightness Sun altitude
Rises 21:13:13 0° 228° (SW) 2,986 11.3 -39.0°
Enters shadow 21:15:32 - 216° (SW) 2,242 10.4 -39.4°
Reaches altitude 10° 21:16:14 10° 210° (SSW) 2,045 - -39.6°
Maximum altitude 21:19:36 19° 164° (SSE) 1,496 - -40.2°
Drops below altitude 10° 21:22:50 10° 118° (ESE) 1,959 - -40.9°
Sets 21:25:38 0° 100° (E) 2,817 - -41.4°
